THOR ABLESTAR DEB, 48822

Orbit data source: Space-Track

THOR ABLESTAR DEB, 48822 is space debris in LEO originally from a launch on Thu, 29 Jun 1961 UTC launched from the Air Force Eastern Test Range (AFETR). Debris objects in space refer to the collection of defunct objects orbiting the Earth. Examples of debris include non-operational satellites, rocket bodies, and fragments generated from explosions, collisions, or faulty payload assembly.

Loading next visibility...
Identifier
48822, 1961-015NA
Orbit
LEO
Country
Flag of USUS
Related business
Manufacturer
Unknown
Mission
Spacecraft
Bus & Motor
Unknown
Mass
Unknown
Launch date (UTC)
1961-06-29 (65 years ago)
Launch vehicle
Unknown
Launch site
Air Force Eastern Test Range (AFETR)
Object type
Payload
Rocket body
Debris
Shape & HBR
Unknown shape, 0.1 m
Radar Cross Section
Small (<0.1 m²)

Expand to show TLE details & history
Last TLE update: 1 week ago

TLE from 1 week ago
0 THOR ABLESTAR DEB
1 48822U 61015NA  26153.05594257  .00000079  00000-0  91494-4 0  9998
2 48822  66.7183  42.7982 0112542  37.0519 323.8269 14.06036163642622
Epoch: 2026-06-02T01:20Z
TLE epoch observation values (Epoch: 2026-06-02T01:20:33.438Z)
Latitude
-0.00005°
Longitude
132.12446°
Altitude
809.494 km
Speed
7.483 km/s
True Right ascension
02h 51m 11s
True Declination
0° 00' 00"
Sunlit
Object was in daylight at epoch
Visualization orbit readout
Latitude
Unknown
Longitude
Unknown
Altitude
Unknown
Speed
Unknown
Apparent Right ascension
Unknown
Apparent Declination
Unknown
Sunlit
N/A
Visualization observer readout
Local Sidereal Time
19:18:04
Azimuth
Unknown
Elevation
Unknown
Doppler factor
Unknown
Orbital elements
Apogee altitude
952.946 km
Perigee altitude
789.771 km
Semi-major axis
7,249.496 km
Eccentricity
0.01125
Inclination
66.7183°
RAAN
42.7982°
Arg. of periapsis
37.0519°
True anomaly
323.05701°
Mean anomaly
323.8269°
Eccentric anomaly
323.44283°
Mean motion
3.51626 °/min
Orbital period
102.38 mins
BSTAR
0.000091494
Loading maneuver chart data...
Computing Atmospheric mass density...

Documentation

Showing up to 5 results
|